Погода в Арефине

Россия / Владимирская область     56°10′22″N   42°38′26″E
темп.,
°C
ветер,
м/с
пор.,
м/с
влажн.,
%
обл.,
%
осадки,
мм/ч
давл.,
гПа
погр.,
м
7 августа, вс
вс700:00+19ю22685 0.0 102033
03:00+18ююв23673 0.0 102037
06:00+19ююв25690 0.0 101999
09:00+25ю35498 0.0 1019408
12:00+29ююз45380 0.0 10191713
15:00+31ююз343225 0.0 10172799
18:00+28ююз234645 0.0 101687
21:00+21ююз22613 0.0 101720
8 августа, пн
пн800:00+19св24828 0.0 101874
03:00+18всв2584100 0.0 1019128
06:00+19ссв23855 0.0 1020101
09:00+24с22624 0.0 1020642
12:00+27с214810 0.0 10201216
15:00+29зсз2341100 0.0 10192065
18:00+26ссв366091 0.0 1019514
21:00+18ссв3594100 3.6 102192
9 августа, вт
вт900:00+17всв269697 0.2 1021134
03:00+16ссв239642 0.2 102065
06:00+17с369699 0.9 1021180
09:00+21всв468091 0.9 1020380
12:00+24св4564100 0.3 1020769
15:00+20ссз4587100 2.6 1019197
18:00+19ссз2391100 0.5 1020131
21:00+16ссв259886 0.8 1020153
10 августа, ср
ср1000:00+16сз239996 0.1 102097
03:00+15с259944 0.1 1020135
06:00+15ссв3697100 0.0 1020292
09:00+17св3587100 0.0 1021582
12:00+19ссв3475100 0.0 1021815
15:00+22св3460100 0.1 10211206
18:00+21ссв2563100 0.0 1021302
21:00+16св247764 0.0 102261
11 августа, чт
чт1100:00+15св248583 0.0 102364
03:00+14св228389 0.0 102436
06:00+14св2479100 0.0 1025114
09:00+20св345899 0.0 1025510
12:00+23св234161 0.0 10251722
15:00+24ссв223746 0.0 10241957
18:00+22св23510 0.0 1024134
21:00+15в22630 0.0 102511